User: anonymous   Login
Location: *
(55.6049°S, 142.1985°W)
Time: 05:12:41
(UTC+00:00)
Language:

Cosmos 1633 - Orbit

View from above orbital plane
View from above orbital plane
View from above satellite
View from above satellite

Ground track
Ground track

The orbit data is extracted from the following two-line orbital elements,

1 15592U 85020A   21210.53810358  .00001892  00000-0  59312-4 0  9990
2 15592  82.5360 248.7009 0010949 240.9253 119.0892 15.32367288993934
Epoch (UTC): 29 July 2021 12:54:52
Eccentricity: 0.0010949
inclination: 82.5360°
perigee height: 461 km
apogee height: 476 km
right ascension of ascending node: 248.7009°
argument of perigee: 240.9253°
revolutions per day: 15.32367288
mean anomaly at epoch: 119.0892°
orbit number at epoch: 99393

The dashed part of the orbit path shows where the satellite is in the earth's shadow,  

DLR